PAKSAT-1R (37779 NORAD) Tracking and Keplerian Element Data

This shows tracking and keplerian element data for the satellite.

Feedback or suggestion? Click here.




ElementValue
Catalog37779
NamePAKSAT-1R
Epoch Orbit4947
Epoch Day34.54823069
Epoch Year2025
RAAN117.4669
Inclination0.0205
Eccentricity0.0003357
Argument of Perigee267.2338
Mean Anonmoly344.5619
Mean Motion1.00272172
Decay Rate1.58E-06
L11 37779U 11042A 25034.54823069 .00000158 00000+0 00000+0 0 9994
L22 37779 0.0205 117.4669 0003357 267.2338 344.5619 1.00272172 49473



Live tracking and technical data element details for PAKSAT-1R (NORAD 37779). PAKSAT-1R can be tracked NOW for your location showing map with azimuth and elevation plus other details from your city location.







IsCatalogInMostPopularTable: catalog: 37779, numindb: 365
Update: records affected: 1



GetName: 37779 PAKSAT-1R

Hit Count: updated at: Sat, 24 May 2025 17:27:54 GMT